GFSNW_sfc_temp_021.txt.gz
Temp
56 56 56 56 54 52 53 47 48 57 58 52 53 52 56 56 65 71 68 68 69 67 67 66 65 66 71 78 78 71 76 74 66 71 81 81 83 77 76 69 62 67 69 71
56 56 56 55 54 53 49 44 45 58 57 48 50 54 56 61 64 66 66 66 69 71 67 61 66 69 78 79 77 74 73 69 61 65 74 76 73 77 80 79 78 66 65 70
56 56 56 55 54 53 52 44 40 53 54 53 50 48 52 55 65 64 69 67 69 67 64 67 64 66 74 77 78 70 75 70 66 63 67 75 70 72 75 76 69 70 69 74
56 56 56 55 54 53 52 46 42 45 44 49 48 48 50 51 53 63 64 64 66 64 60 63 63 67 70 75 74 75 73 63 67 72 76 76 74 74 74 71 74 70 75 71
56 56 56 55 55 53 50 43 42 45 43 46 46 47 50 52 53 55 59 60 66 66 60 64 63 67 68 68 72 73 69 65 66 66 74 74 72 76 77 75 76 74 78 75
56 56 56 55 55 53 48 50 50 43 44 44 44 48 50 51 52 57 59 58 55 57 63 67 67 70 71 72 70 68 67 67 63 61 71 70 64 73 75 76 78 75 71 78
56 56 56 55 55 53 48 49 46 40 39 44 45 48 49 48 50 49 55 56 53 62 67 69 70 66 67 70 71 70 64 63 64 63 64 52 72 82 82 78 79 80 82 81
56 56 56 56 55 54 50 48 45 41 37 44 43 45 48 50 51 50 53 58 63 66 61 59 60 62 62 65 67 66 68 63 60 60 61 67 68 71 74 74 74 80 78 81
55 55 56 56 55 55 50 49 51 43 37 42 47 44 44 43 46 50 54 63 64 60 58 56 53 55 61 58 59 65 62 63 64 57 56 55 69 66 69 70 67 75 73 76
55 56 56 56 56 55 51 50 49 44 37 45 48 43 44 50 48 46 51 52 54 58 52 52 55 58 65 57 58 58 60 56 56 53 55 64 63 65 69 62 69 69 71 75
55 55 56 56 56 56 50 51 49 45 42 47 50 51 44 46 47 42 50 49 51 50 49 52 55 54 60 61 64 62 58 55 51 55 52 55 65 67 63 66 69 72 73 73
55 56 56 56 56 55 53 47 49 49 42 46 53 52 53 52 52 48 51 48 46 49 48 50 50 53 56 56 56 62 57 61 50 51 56 63 65 64 67 70 69 71 73 76
55 55 55 54 55 55 53 50 50 46 41 47 49 49 57 60 58 58 45 50 52 52 55 49 49 50 56 53 56 58 59 62 54 57 60 62 65 68 70 71 69 71 73 73
55 55 54 55 54 55 55 49 53 48 45 37 47 60 54 62 62 57 55 55 50 48 52 48 49 51 57 55 55 57 54 60 56 54 54 61 64 66 68 69 70 70 71 72
55 55 55 55 54 54 52 51 50 54 46 37 42 52 58 61 58 56 55 55 49 45 43 49 48 57 55 54 54 47 51 51 56 53 58 58 61 63 66 65 65 67 69 69
54 54 54 54 53 52 51 44 46 50 51 40 37 53 53 58 57 55 53 50 51 52 47 47 56 56 56 51 48 51 52 55 55 58 60 61 65 67 67 65 66 67 67 67
53 53 53 53 53 51 46 45 45 50 49 40 38 42 55 58 58 57 54 55 53 55 51 49 58 54 57 50 43 48 54 57 58 62 64 59 65 59 66 68 67 67 68 68
53 53 53 53 52 51 47 48 50 50 44 44 37 40 49 60 57 55 57 53 54 54 57 56 55 56 54 43 48 51 56 58 57 57 61 59 61 66 65 65 66 64 64 66
53 53 53 51 49 46 47 52 55 52 46 40 39 40 45 59 56 55 54 56 52 58 53 55 52 48 42 46 46 49 54 55 54 56 56 56 58 59 61 64 65 63 63 66
53 51 48 46 51 55 54 50 47 44 46 43 38 47 44 53 56 54 55 55 53 49 49 58 46 43 48 49 50 51 54 59 59 57 57 59 58 59 60 62 64 64 64 65
51 46 45 51 53 53 48 44 43 44 42 42 44 47 45 56 51 53 55 53 53 50 52 53 44 40 46 53 54 56 60 60 61 61 61 62 62 62 63 63 64 65 65 64
47 46 49 49 49 46 42 43 46 43 44 47 44 50 49 52 55 54 56 53 54 46 56 52 42 45 50 53 55 57 59 61 61 62 61 61 61 63 63 64 64 64 65 64
50 46 44 42 44 36 37 37 42 43 48 48 46 47 47 55 55 53 53 50 48 57 49 42 45 49 52 53 57 58 60 62 62 62 63 64 64 64 63 63 64 65 65 65
44 40 35 37 36 39 41 42 43 48 48 50 48 47 48 53 53 50 49 51 53 46 42 39 46 50 53 54 56 58 58 60 62 62 63 63 63 63 64 64 64 64 64 65
41 41 33 35 40 45 47 49 48 50 50 48 49 51 52 51 52 52 53 47 42 43 41 45 51 51 54 55 56 57 58 58 60 61 61 62 62 63 64 64 64 64 64 64
43 42 40 43 44 47 48 49 49 52 48 52 55 51 49 46 48 46 43 43 38 42 49 52 52 52 54 55 56 57 58 59 60 60 61 62 62 61 61 63 64 64 64 64
46 45 48 45 43 44 49 49 51 53 53 49 51 45 41 50 46 44 47 41 44 50 53 53 54 54 55 56 57 58 58 59 60 59 60 60 61 62 62 62 63 63 63 63

GFSNW_sfc_temp_024.txt.gz
Temp
57 57 57 56 54 53 56 59 54 68 71 59 65 61 68 61 72 78 76 77 76 75 76 74 75 75 80 85 88 79 85 81 71 76 88 90 88 82 83 74 70 78 76 78
57 57 56 55 54 53 59 54 58 73 67 53 60 65 65 68 68 72 73 72 75 78 74 68 75 77 84 84 83 81 84 76 68 71 81 86 81 85 87 86 84 74 70 75
56 56 56 55 54 54 58 55 52 63 62 64 57 57 58 60 71 70 73 74 76 74 71 76 72 75 81 84 84 73 79 79 72 69 73 80 74 79 84 84 77 76 77 80
56 56 56 55 54 54 56 56 54 53 52 56 53 55 57 55 58 69 73 69 71 71 67 69 70 75 79 81 74 80 81 70 76 78 82 83 81 79 80 78 80 75 80 80
56 56 56 55 54 53 51 47 50 52 50 53 52 52 54 55 59 63 62 65 71 72 68 70 69 74 74 74 81 79 80 70 74 72 80 80 78 81 82 81 81 81 82 81
57 57 56 55 54 51 49 55 57 51 49 49 49 53 55 55 58 61 65 64 62 63 69 74 76 80 80 81 76 76 75 73 69 66 76 77 71 79 81 82 84 83 76 84
56 56 56 56 55 53 48 53 55 42 45 51 49 52 53 52 54 52 59 61 58 67 74 72 74 76 76 77 77 80 73 70 72 68 72 59 78 89 87 83 85 88 87 88
56 56 56 56 55 54 48 50 47 41 39 50 49 49 51 53 54 53 55 60 66 71 65 61 61 65 67 70 75 76 78 72 69 65 67 73 78 82 80 80 79 88 88 89
56 56 56 56 56 54 50 49 52 43 38 48 52 48 47 47 48 52 56 64 68 66 62 61 54 56 63 63 68 78 77 74 70 69 62 59 69 75 78 78 70 89 90 88
56 56 56 56 56 54 50 49 53 44 37 49 52 49 50 56 52 51 55 53 58 63 56 54 54 61 71 63 62 62 66 67 64 66 65 71 70 74 78 65 71 78 91 91
56 56 56 56 56 56 51 49 51 45 40 44 53 57 51 49 48 42 53 52 54 53 48 52 57 63 65 67 70 65 64 64 67 70 63 60 71 74 70 70 78 80 82 84
55 56 56 56 56 55 53 46 52 53 42 43 57 58 61 59 59 54 53 52 51 48 47 50 51 56 65 66 61 73 65 73 71 68 69 69 72 69 74 76 75 79 81 83
55 55 56 56 54 52 53 50 49 49 42 45 54 55 64 67 65 66 49 56 54 49 57 50 49 48 61 58 63 69 68 74 70 65 65 68 72 72 75 78 77 79 83 85
55 55 56 55 56 55 55 51 53 49 44 41 54 68 62 69 70 65 62 60 54 49 49 50 47 47 64 56 61 60 59 64 67 65 65 66 67 70 74 74 78 79 82 82
55 55 55 55 53 53 54 55 56 55 46 45 51 61 66 68 65 63 62 60 52 45 43 47 45 51 54 59 58 48 51 51 66 66 69 67 63 66 70 68 72 74 74 76
54 54 54 55 54 53 54 52 48 53 52 42 40 60 59 64 64 61 59 59 57 47 48 49 49 54 50 52 47 51 54 59 62 65 68 65 63 61 68 66 68 71 75 77
54 54 54 53 53 54 50 50 51 52 49 39 38 44 61 63 63 61 60 58 57 58 49 49 49 50 56 51 43 49 55 60 65 68 66 57 56 53 61 68 71 69 71 72
54 54 53 53 53 52 48 49 51 53 44 42 37 39 52 65 56 54 60 50 49 53 54 49 48 50 56 44 48 53 54 57 54 58 61 57 59 58 58 69 70 69 70 70
53 53 53 57 55 52 48 53 53 50 43 34 37 39 44 67 60 56 55 54 50 62 51 49 49 46 43 46 48 51 54 53 51 53 54 57 58 58 61 66 67 69 66 69
53 57 56 51 56 54 55 50 46 48 46 42 38 56 51 61 60 52 47 57 53 44 49 51 45 44 49 51 51 52 54 54 54 51 51 53 54 60 63 65 68 69 70 68
58 52 49 59 58 58 55 48 45 43 37 39 45 54 51 63 52 54 60 54 57 45 47 48 42 40 47 52 52 54 58 62 62 63 62 61 63 63 67 68 70 72 71 70
51 48 50 53 54 54 47 49 52 50 43 49 49 53 57 59 65 58 61 57 58 46 55 47 40 44 50 53 54 57 62 66 67 68 65 67 69 68 69 70 71 71 71 72
57 51 49 49 52 38 39 38 43 41 51 53 54 54 60 63 65 62 61 54 49 61 49 40 44 48 51 53 57 62 66 66 67 69 69 68 68 70 70 69 72 72 71 72
48 42 35 36 37 41 43 44 45 49 52 50 52 54 58 62 60 59 53 57 60 48 41 39 46 49 51 57 61 66 66 68 70 70 70 70 69 69 70 71 72 72 70 71
43 41 33 40 46 49 54 57 57 59 58 52 53 58 60 59 54 56 55 52 43 43 40 45 51 53 57 61 62 64 65 67 69 70 70 70 70 70 69 71 72 72 71 70
52 48 47 51 52 55 58 58 58 63 60 62 62 59 55 52 52 51 47 45 39 43 48 52 55 56 59 61 63 63 64 66 67 69 70 71 70 69 70 72 71 72 71 70
53 52 59 57 56 55 58 59 59 63 63 57 60 50 48 60 50 42 43 41 47 52 54 58 59 59 60 63 65 65 65 65 67 68 69 69 70 72 71 69 70 71 71 71

GFSNW_sfc_temp_030.txt.gz
Temp
57 57 57 56 55 53 56 62 54 81 82 62 63 58 63 63 68 74 73 75 73 72 75 77 81 82 87 95 93 84 88 82 74 80 91 93 89 83 82 73 70 78 76 79
57 57 57 56 55 54 59 54 59 75 76 54 57 63 65 68 68 69 69 69 74 78 73 69 76 81 93 95 92 86 89 79 70 73 83 90 85 86 86 85 83 73 72 76
57 57 56 55 55 55 56 51 51 64 70 68 61 55 56 58 71 70 73 70 72 72 71 76 73 76 85 92 93 76 86 82 74 71 74 83 79 83 85 84 75 76 79 81
57 57 56 55 55 55 55 51 52 59 49 54 56 51 49 49 54 65 67 64 65 58 58 69 70 76 80 86 82 86 85 72 77 81 82 84 83 83 83 80 81 75 81 82
56 56 56 56 55 55 49 41 49 55 52 55 53 51 51 50 53 50 52 55 58 58 55 57 49 58 70 76 86 83 85 72 75 73 83 82 80 84 85 85 83 83 84 83
56 56 56 56 55 54 48 56 51 45 46 51 52 54 55 49 51 54 60 51 49 51 55 59 61 64 67 72 78 79 77 76 70 66 77 78 72 80 83 84 87 84 78 85
57 57 57 56 55 54 52 51 48 40 37 46 48 53 55 52 51 46 55 58 51 58 64 62 65 69 73 74 77 83 75 71 72 68 71 60 79 89 89 85 87 90 89 89
56 56 57 57 56 55 50 51 46 40 35 47 49 51 53 49 50 47 55 60 65 65 61 46 47 61 64 69 76 79 82 74 68 65 66 72 78 84 84 82 81 91 89 91
56 56 57 57 57 56 55 52 52 43 37 44 53 48 53 48 47 51 57 65 70 64 56 41 37 44 58 60 68 80 79 77 71 67 62 59 76 86 93 91 74 91 92 91
56 57 57 57 58 56 55 52 55 45 37 46 51 49 49 53 50 42 47 50 56 65 51 40 37 40 61 57 59 63 68 69 66 66 64 70 83 88 91 69 72 85 88 88
56 57 57 57 57 56 55 55 55 48 39 47 53 56 51 53 54 46 47 47 53 56 47 43 43 45 56 58 64 61 62 62 64 66 63 60 87 85 76 78 83 84 86 87
56 57 57 57 57 57 56 49 57 52 43 47 57 59 62 61 60 55 56 49 45 51 46 47 46 46 47 54 51 69 58 67 65 68 70 71 73 79 82 84 82 83 85 88
56 57 57 57 56 56 55 53 52 51 43 49 55 55 63 67 66 68 53 56 59 56 54 44 46 47 51 46 52 58 64 61 65 69 74 78 79 81 85 85 83 86 89 90
56 56 56 56 56 55 56 51 53 48 44 38 52 69 64 71 69 67 66 62 63 58 56 48 46 47 56 47 48 49 52 56 57 64 75 77 79 82 83 85 86 85 85 86
55 55 56 56 56 54 56 59 57 52 43 40 49 57 65 70 68 69 68 64 60 50 50 42 44 50 49 51 51 51 54 51 53 56 56 58 73 79 82 80 80 82 80 78
55 55 55 55 55 55 55 44 51 53 49 40 37 61 60 60 53 65 65 65 62 61 47 43 47 55 51 46 48 53 55 56 58 53 58 55 72 75 80 78 80 81 80 81
55 55 55 55 54 57 48 46 50 54 53 41 37 42 56 60 62 67 63 67 63 61 51 46 49 49 51 50 47 50 52 55 57 57 58 55 58 67 75 76 78 76 81 82
55 55 54 54 53 53 50 53 52 53 45 42 35 38 45 58 54 57 64 55 56 56 54 49 46 49 50 46 52 52 52 54 56 58 62 62 64 67 67 70 74 73 74 76
54 54 55 57 53 50 50 53 52 50 44 37 36 35 35 55 51 55 50 54 49 54 47 46 47 46 44 48 51 49 50 51 55 60 64 65 64 64 63 62 64 64 68 71
54 58 55 48 53 55 54 48 43 41 41 38 33 38 39 52 52 53 52 51 46 42 45 48 42 42 48 52 51 51 52 53 55 56 56 61 62 62 63 59 58 56 58 64
62 56 57 61 58 55 47 43 39 39 36 40 41 45 45 51 45 51 55 49 45 38 43 43 38 38 44 51 51 53 54 55 54 55 57 59 59 60 61 62 61 60 60 59
55 53 58 60 52 46 42 40 44 43 41 48 46 47 50 48 51 46 48 44 45 38 50 43 36 41 49 51 53 55 55 59 61 63 63 64 63 62 60 62 64 68 67 64
59 54 53 53 52 40 36 34 39 42 49 53 54 47 48 50 50 47 47 43 42 51 42 35 39 46 49 51 53 55 56 57 64 64 64 64 65 67 66 65 64 65 67 67
56 52 39 48 45 43 40 42 45 55 57 58 57 51 47 51 49 50 45 48 50 39 36 34 41 47 51 55 60 65 62 62 65 66 69 69 66 64 65 66 67 67 65 67
56 56 41 47 56 61 60 52 51 56 55 59 60 61 58 56 53 54 52 46 37 38 36 42 47 50 51 58 64 66 63 64 65 71 70 68 68 69 67 66 66 66 66 65
62 60 55 60 56 59 62 64 64 69 58 63 63 56 53 52 50 46 42 41 38 42 46 49 51 54 58 60 64 63 65 66 67 66 68 66 68 66 67 70 70 69 68 66
60 58 64 60 60 56 63 63 67 73 67 57 57 47 48 57 45 41 45 40 44 47 50 52 53 54 56 59 64 66 64 64 63 64 62 67 64 69 70 68 70 70 72 72

GFSNW_sfc_temp_033.txt.gz
Temp
57 57 57 56 55 53 54 52 43 67 70 53 57 51 56 57 61 66 63 63 60 58 60 59 62 63 70 87 87 76 80 72 63 69 80 85 81 73 67 61 52 59 64 65
57 56 56 56 54 54 52 45 48 63 64 44 48 56 58 62 60 60 58 58 64 65 60 55 62 66 77 81 78 79 79 71 59 62 71 79 76 78 75 73 62 60 53 64
57 57 56 55 55 55 51 45 41 54 57 57 51 46 48 48 58 56 59 54 59 59 59 62 57 61 73 80 79 74 73 74 68 61 65 68 66 76 77 74 65 61 66 65
57 57 56 55 54 55 50 44 43 50 40 45 46 45 42 43 44 55 55 49 51 48 45 49 52 56 54 62 67 71 67 62 71 73 75 75 75 75 77 73 73 64 68 68
57 56 56 56 55 55 47 40 42 46 42 46 46 46 48 45 48 48 45 46 47 50 42 46 42 48 48 49 58 55 57 57 65 64 75 76 73 77 77 78 77 75 74 71
57 57 56 56 55 51 45 49 49 42 41 42 43 44 47 46 49 50 53 50 44 44 51 52 52 56 55 53 50 51 53 54 56 56 67 65 60 73 75 76 79 77 69 74
57 57 57 56 55 53 47 47 46 39 35 41 42 46 48 45 47 45 51 52 46 52 64 62 58 58 58 59 60 63 56 56 59 53 59 51 64 78 81 77 78 78 78 77
57 57 57 57 56 55 49 49 44 40 35 41 43 46 47 48 50 50 51 54 56 56 57 45 43 51 55 59 64 64 67 59 55 53 54 58 68 74 72 69 71 78 75 78
57 57 57 57 56 56 52 50 49 43 36 37 46 42 44 42 44 46 50 57 59 56 49 42 35 38 43 50 58 68 68 67 60 51 50 51 62 76 83 78 60 75 77 77
57 57 57 58 58 56 52 50 52 44 37 42 44 39 43 48 45 42 48 47 49 52 43 38 35 36 47 42 49 52 56 57 57 52 51 57 69 80 84 62 62 73 76 74
57 57 57 57 57 57 53 51 53 46 39 43 47 49 46 47 48 41 46 44 41 43 40 41 39 38 44 43 53 51 49 47 54 55 50 49 72 75 66 66 72 74 75 75
56 57 57 57 57 57 56 47 54 52 44 43 51 51 54 53 54 49 50 45 42 42 40 40 39 41 44 44 44 59 47 54 48 54 56 64 68 69 69 71 71 73 73 75
56 56 56 56 56 56 55 49 51 49 43 44 47 47 57 60 58 58 45 49 53 48 46 43 40 39 46 41 44 48 53 54 53 53 56 56 71 67 68 76 76 78 75 75
56 56 56 56 56 56 55 49 50 48 44 37 43 60 55 62 61 62 58 56 58 50 46 44 42 40 48 44 45 46 49 51 49 52 55 57 64 59 71 76 76 74 75 76
56 56 56 56 56 55 54 55 53 50 43 37 40 49 57 59 59 60 62 58 55 46 39 42 40 45 46 48 48 46 51 48 47 47 53 54 55 57 61 69 71 71 71 71
55 55 55 55 55 55 52 44 49 53 49 40 35 52 53 55 55 54 53 59 56 54 46 43 44 49 47 44 44 49 51 53 54 53 57 55 57 58 59 60 69 72 72 72
55 55 54 55 54 53 47 44 49 50 48 40 36 40 55 56 55 56 57 59 56 54 47 44 45 47 48 46 44 50 53 54 55 58 59 54 54 53 57 62 71 70 71 70
55 54 54 54 54 51 46 51 53 51 45 42 34 36 44 53 48 50 58 54 53 52 49 47 46 47 47 44 49 51 52 53 55 55 57 54 55 57 56 59 65 64 65 67
54 54 54 53 49 46 48 53 51 49 44 37 36 33 37 49 48 50 48 49 44 50 45 45 45 44 42 46 48 49 50 50 53 54 56 58 57 56 57 57 58 60 62 64
54 53 52 47 49 55 53 46 42 40 40 36 33 39 36 49 46 44 45 47 44 41 44 46 40 41 48 50 50 50 50 51 52 53 53 56 56 57 57 57 58 57 58 60
58 54 53 56 56 50 47 42 38 36 34 36 37 39 38 51 43 44 47 44 42 35 41 40 38 38 45 50 50 51 51 51 51 52 54 55 56 57 58 59 60 59 58 58
52 50 53 56 49 46 41 41 43 40 39 42 41 44 46 47 50 45 46 41 43 38 47 39 34 41 48 49 52 52 53 54 54 56 57 59 61 61 59 59 60 61 60 61
58 50 48 47 44 35 36 35 39 41 47 48 47 45 47 48 48 44 43 41 41 48 38 33 38 45 47 49 51 54 55 55 55 59 62 62 63 64 61 59 60 59 60 62
54 51 38 44 42 37 39 42 44 49 51 50 49 48 46 48 46 47 44 46 45 37 34 35 42 45 48 52 53 54 57 57 60 62 64 64 63 61 62 63 63 63 61 62
54 54 41 48 54 58 55 53 49 51 54 54 53 54 52 50 49 48 47 41 35 37 36 41 47 50 51 54 59 61 61 61 62 64 63 64 63 62 62 64 64 64 64 63
60 57 51 55 53 53 57 59 57 65 62 60 59 53 50 46 45 43 40 38 36 41 46 49 50 51 55 57 59 59 60 61 61 61 61 61 61 62 62 63 63 63 63 62
60 53 62 55 53 51 52 60 60 66 61 53 53 45 42 47 42 40 43 39 43 46 49 51 52 53 56 57 58 61 61 61 60 60 61 61 63 64 63 62 62 62 63 64